Back to catalog

STARLINK-36724

AliveCommunicationsVLEO
NORAD 67914·PAYLOAD·🇺🇸 United States

Launched Feb 22, 2026 from Vandenberg Space Force Base

Loading…

Next Passes (next 24 hours)

TLE

FreshSource: CelesTrak SupGP

Epoch: Sep 15, 2026, 04:11 UTC

1 67914C 26036L   26258.17479167 -.00036486  00000+0 -13217-2 0  2581
2 67914  43.0021 254.9415 0001154 267.4255  96.8804 15.27592220    12

Track STARLINK-36724 in real time with AllMySat

Download on the App Store